Home > Weather > Niterói > Past weeks

Flag for Brazil Past Weather in Niterói, Rio de Janeiro, Brazil — Yesterday and Last 2 Weeks

Now
77 °F

Sunny.


Feels Like: 79 °F
Forecast: 59 / 80 °F
Wind: 13 mph from South

Location: Rio De Janeiro Airport

Current Time: Aug 26, 2016 at 5:00:18 PM

Latest Report: Aug 26, 2016 at 4:00 PM


Visibility: 10 mi

Pressure: 30.01 "Hg

Humidity: 65%

Dew Point: 64 °F

Location of NiteróiLocation

Past Weather in Niterói — Graph

°F

Niterói Temperature Yesterday

Maximum temperature yesterday: 81 °F (at 12:00 PM)
Minimum temperature yesterday: 64 °F (at 4:00 AM)
Average temperature yesterday: 71 °F

High & Low Weather Summary for the Past Weeks

 TemperatureHumidityPressure
High93 °F (Aug 15, 4:00 PM)100% (Aug 20, 7:00 PM)30.27 "Hg (Aug 20, 7:00 PM)
Low63 °F (Aug 12, 6:00 AM)30% (Aug 15, 4:00 PM)29.71 "Hg (Aug 15, 3:00 PM)
Average72 °F75%30.05 "Hg
* Reported Aug 11 4:00 PM — Aug 26 4:00 PM, Niterói, Weather by CustomWeather, © 2016

Note: Actual official high and low records may vary slightly from our data, if they occured in-between our weather recording intervals... More about our weather records

Advertising

Niterói Weather History for the Previous 24 Hours

Scroll right to see more
 ConditionsComfort  
Time TempWeatherWind HumidityBarometerVisibility
4:00 PM
Fri, Aug 26
77 °FSunny.13 mph65%30.01 "Hg10 mi
3:00 PM77 °FSunny.10 mph61%30.04 "Hg10 mi
2:00 PM79 °FSunny.12 mph48%30.04 "Hg10 mi
1:00 PM77 °FSunny.9 mph57%30.07 "Hg10 mi
12:00 PM79 °FSunny.6 mph48%30.09 "Hg10 mi
11:00 AM79 °FSunny.6 mph51%30.12 "Hg10 mi
10:00 AM75 °FSunny.5 mph61%30.12 "Hg10 mi
9:00 AM73 °FSunny.6 mph65%30.12 "Hg10 mi
8:00 AM70 °FSunny.6 mph73%30.12 "Hg10 mi
7:00 AM68 °FSunny.7 mph78%30.09 "Hg10 mi
6:00 AM64 °FSunny.5 mph83%30.09 "Hg10 mi
5:00 AM64 °FClear.5 mph83%30.07 "Hg10 mi
4:00 AM64 °FClear.7 mph83%30.07 "Hg10 mi
3:00 AM66 °FClear.3 mph78%30.07 "Hg10 mi
2:00 AM66 °FClear.5 mph78%30.09 "Hg10 mi
1:00 AM68 °FClear.2 mph73%30.09 "Hg10 mi
12:00 AM68 °FClear.2 mph73%30.12 "Hg10 mi
11:00 PM
Thu, Aug 25
68 °FClear.3 mph73%30.12 "Hg10 mi
10:00 PM68 °FClear.1 mph73%30.12 "Hg10 mi
9:00 PM70 °FClear.3 mph69%30.12 "Hg10 mi
8:00 PM72 °FClear.6 mph69%30.12 "Hg10 mi
7:00 PM72 °FClear.3 mph73%30.12 "Hg10 mi
6:00 PM72 °FClear.9 mph73%30.12 "Hg10 mi
5:00 PM73 °FClear.14 mph69%30.09 "Hg10 mi
Weather by CustomWeather, © 2016

See weather overviewHow to use our weather pages